Escanaba, MI

7:20 AM EDT on October 24, 2017 (GMT -0400)
Delta County

Weather History for KESC - November, 2014

Change the Weather History Date:

Thursday, November 20, 2014

  Actual Average Record
Temperature  
Mean Temperature 12 °F -  
Max Temperature 21 °F 38 °F 55 °F (2013)
Min Temperature 5 °F 26 °F 5 °F (2014)
Degree Days  
Heating Degree Days 53    
Moisture  
Dew Point 3 °F    
Average Humidity 66    
Maximum Humidity 79    
Minimum Humidity 46    
Precipitation  
Precipitation 0.00 in - - ()
Sea Level Pressure  
Sea Level Pressure 29.88 in    
Wind  
Wind Speed 11 mph (West)    
Max Wind Speed 20 mph    
Max Gust Speed 26 mph    
Visibility 10 miles    
Events      
Averages and records for this station are not official NWS values.
T = Trace of Precipitation, MM = Missing Value Source: NWS Daily Summary

Daily Weather History Graph

Daily Weather History Graph

Search for Another Location

Airport or City:

Trip Planner

Search our weather history database for the weather conditions in past years. The results will help you decide how hot, cold, wet, or windy it might be!

Date:

Astronomy

Nov. 20, 2014 Rise Set
Actual Time 7:54 AM EST 5:12 PM EST
Civil Twilight 7:22 AM EST 5:45 PM EST
Nautical Twilight 6:45 AM EST 6:21 PM EST
Astronomical Twilight 6:10 AM EST 6:57 PM EST
Moon 5:42 AM EST (11/20) 4:21 PM EST (11/20)
Length of Visible Light 10h 23m
Length of Day
9h 17m
Waning Crescent, 4% of the Moon is Illuminated
Nov 20
Waning Crescent
Nov 22
New
Nov 29
First Quarter
Dec 6
Full
Dec 14
Last Quarter

Hourly Weather History & Observations

Time (EST) Temp. Windchill Dew Point Humidity Pressure Visibility Wind Dir Wind Speed Gust Speed Precip Events Conditions
12:15 AM 15.8 °F 3.4 °F 8.6 °F 73% 29.69 in 10.0 mi West 10.4 mph - N/A   Overcast
12:35 AM 15.8 °F 4.2 °F 8.6 °F 73% 29.70 in 10.0 mi West 9.2 mph - N/A   Overcast
12:55 AM 15.8 °F 3.4 °F 8.6 °F 73% 29.70 in 10.0 mi West 10.4 mph - N/A   Scattered Clouds
1:15 AM 14.0 °F 0.5 °F 8.6 °F 79% 29.70 in 10.0 mi West 11.5 mph - N/A   Clear
1:35 AM 15.8 °F 2.7 °F 8.6 °F 73% 29.70 in 10.0 mi West 11.5 mph - N/A   Clear
1:55 AM 15.8 °F 2.1 °F 8.6 °F 73% 29.70 in 10.0 mi West 12.7 mph - N/A   Clear
2:15 AM 15.8 °F 2.1 °F 6.8 °F 68% 29.70 in 10.0 mi West 12.7 mph - N/A   Clear
2:35 AM 14.0 °F 1.2 °F 8.6 °F 79% 29.71 in 10.0 mi West 10.4 mph - N/A   Clear
2:55 AM 14.0 °F 0.5 °F 8.6 °F 79% 29.72 in 10.0 mi West 11.5 mph - N/A   Clear
3:15 AM 14.0 °F -0.8 °F 6.8 °F 73% 29.72 in 10.0 mi West 13.8 mph - N/A   Clear
3:35 AM 14.0 °F 1.2 °F 6.8 °F 73% 29.73 in 10.0 mi West 10.4 mph - N/A   Clear
3:55 AM 12.2 °F -1.8 °F 6.8 °F 79% 29.73 in 10.0 mi West 11.5 mph - N/A   Clear
4:15 AM 12.2 °F -1.8 °F 6.8 °F 79% 29.73 in 10.0 mi West 11.5 mph - N/A   Clear
4:35 AM 12.2 °F -0.2 °F 6.8 °F 79% 29.74 in 10.0 mi West 9.2 mph - N/A   Clear
4:55 AM 12.2 °F -1.0 °F 5.0 °F 73% 29.74 in 10.0 mi West 10.4 mph - N/A   Clear
5:15 AM 12.2 °F -1.8 °F 6.8 °F 79% 29.75 in 10.0 mi West 11.5 mph - N/A   Clear
5:35 AM 12.2 °F -2.5 °F 3.2 °F 67% 29.75 in 10.0 mi West 12.7 mph - N/A   Clear
5:55 AM 12.2 °F -1.8 °F 3.2 °F 67% 29.75 in 10.0 mi West 11.5 mph - N/A   Clear
6:15 AM 10.4 °F -3.3 °F 3.2 °F 73% 29.76 in 10.0 mi West 10.4 mph - N/A   Clear
6:35 AM 10.4 °F -4.1 °F 3.2 °F 73% 29.76 in 10.0 mi West 11.5 mph - N/A   Clear
6:55 AM 10.4 °F -3.3 °F 3.2 °F 73% 29.77 in 10.0 mi West 10.4 mph - N/A   Clear
7:15 AM 10.4 °F -2.4 °F 3.2 °F 73% 29.77 in 10.0 mi West 9.2 mph - N/A   Clear
7:35 AM 10.4 °F -3.3 °F 3.2 °F 73% 29.78 in 10.0 mi West 10.4 mph - N/A   Scattered Clouds
7:55 AM 10.4 °F -3.3 °F 1.4 °F 67% 29.78 in 10.0 mi West 10.4 mph - N/A   Overcast
8:15 AM 10.4 °F -4.1 °F 1.4 °F 67% 29.78 in 10.0 mi West 11.5 mph - N/A   Mostly Cloudy
8:35 AM 10.4 °F -4.1 °F 1.4 °F 67% 29.79 in 10.0 mi West 11.5 mph - N/A   Scattered Clouds
8:55 AM 10.4 °F -4.8 °F 1.4 °F 67% 29.80 in 10.0 mi West 12.7 mph - N/A   Clear
9:15 AM 12.2 °F -4.3 °F 3.2 °F 67% 29.80 in 10.0 mi West 16.1 mph 20.7 mph N/A   Clear
9:35 AM 12.2 °F -3.7 °F 1.4 °F 62% 29.81 in 10.0 mi West 15.0 mph - N/A   Clear
9:55 AM 14.0 °F -1.4 °F 3.2 °F 62% 29.82 in 10.0 mi West 15.0 mph - N/A   Clear
10:15 AM 14.0 °F 0.5 °F 3.2 °F 62% 29.83 in 10.0 mi WNW 11.5 mph - N/A   Clear
10:35 AM 15.8 °F 1.4 °F 5.0 °F 62% 29.83 in 10.0 mi WNW 13.8 mph - N/A   Clear
10:55 AM 15.8 °F -0.2 °F 5.0 °F 62% 29.84 in 10.0 mi West 17.3 mph - N/A   Clear
11:15 AM 17.6 °F 3.7 °F 5.0 °F 58% 29.84 in 10.0 mi WNW 13.8 mph 20.7 mph N/A   Clear
11:35 AM 17.6 °F 2.2 °F 5.0 °F 58% 29.84 in 10.0 mi West 17.3 mph 21.9 mph N/A   Clear
11:55 AM 17.6 °F 4.3 °F 3.2 °F 53% 29.85 in 10.0 mi WNW 12.7 mph 21.9 mph N/A   Clear
12:15 PM 17.6 °F 2.2 °F 3.2 °F 53% 29.85 in 10.0 mi West 17.3 mph - N/A   Partly Cloudy
12:35 PM 17.6 °F 3.2 °F 3.2 °F 53% 29.85 in 10.0 mi West 15.0 mph 18.4 mph N/A   Partly Cloudy
12:55 PM 19.4 °F 5.0 °F 1.4 °F 46% 29.85 in 10.0 mi WNW 16.1 mph 20.7 mph N/A   Partly Cloudy
1:15 PM 19.4 °F 5.0 °F 3.2 °F 49% 29.85 in 10.0 mi WNW 16.1 mph 23.0 mph N/A   Mostly Cloudy
1:35 PM 19.4 °F 4.1 °F 1.4 °F 46% 29.85 in 10.0 mi WNW 18.4 mph 23.0 mph N/A   Partly Cloudy
1:55 PM 19.4 °F 5.5 °F 1.4 °F 46% 29.87 in 10.0 mi WNW 15.0 mph 18.4 mph N/A   Scattered Clouds
2:15 PM 19.4 °F 5.0 °F 3.2 °F 49% 29.87 in 10.0 mi WNW 16.1 mph 24.2 mph N/A   Overcast
2:35 PM 17.6 °F 3.7 °F 3.2 °F 53% 29.89 in 5.0 mi NW 13.8 mph 21.9 mph N/A   Mostly Cloudy
2:55 PM 17.6 °F 3.2 °F 6.8 °F 63% 29.89 in 10.0 mi NW 15.0 mph 20.7 mph N/A   Mostly Cloudy
3:15 PM 17.6 °F 4.3 °F 6.8 °F 63% 29.91 in 10.0 mi WNW 12.7 mph - N/A   Clear
3:35 PM 17.6 °F 3.7 °F 6.8 °F 63% 29.91 in 10.0 mi WNW 13.8 mph 20.7 mph N/A   Clear
3:55 PM 17.6 °F 1.3 °F 3.2 °F 53% 29.92 in 9.0 mi WNW 19.6 mph 26.5 mph N/A   Clear
4:15 PM 15.8 °F 3.4 °F 6.8 °F 68% 29.95 in 10.0 mi WNW 10.4 mph - N/A   Clear
4:35 PM 15.8 °F 1.4 °F 3.2 °F 58% 29.95 in 10.0 mi WNW 13.8 mph 18.4 mph N/A   Clear
4:55 PM 15.8 °F 4.2 °F 3.2 °F 58% 29.97 in 10.0 mi WNW 9.2 mph 18.4 mph N/A   Scattered Clouds
5:15 PM 15.8 °F 4.2 °F 3.2 °F 58% 29.99 in 10.0 mi WNW 9.2 mph - N/A   Partly Cloudy
5:35 PM 14.0 °F 2.9 °F 3.2 °F 62% 30.00 in 10.0 mi WNW 8.1 mph - N/A   Clear
5:55 PM 12.2 °F -0.2 °F 3.2 °F 67% 30.02 in 10.0 mi WNW 9.2 mph - N/A   Clear
6:15 PM 12.2 °F -0.2 °F 1.4 °F 62% 30.03 in 10.0 mi WNW 9.2 mph - N/A   Clear
6:35 PM 12.2 °F 0.7 °F 1.4 °F 62% 30.04 in 10.0 mi WNW 8.1 mph - N/A   Clear
6:55 PM 12.2 °F -1.8 °F -0.4 °F 57% 30.04 in 10.0 mi WNW 11.5 mph - N/A   Clear
7:15 PM 12.2 °F -0.2 °F -0.4 °F 57% 30.06 in 10.0 mi WNW 9.2 mph - N/A   Clear
7:35 PM 10.4 °F -1.5 °F -0.4 °F 62% 30.07 in 10.0 mi WNW 8.1 mph - N/A   Clear
7:55 PM 10.4 °F -0.4 °F -0.4 °F 62% 30.08 in 10.0 mi WNW 6.9 mph - N/A   Clear
8:15 PM 10.4 °F -1.5 °F -2.2 °F 57% 30.09 in 10.0 mi WNW 8.1 mph - N/A   Clear
8:35 PM 10.4 °F 2.2 °F 1.4 °F 67% 30.09 in 10.0 mi West 4.6 mph - N/A   Clear
8:55 PM 8.6 °F -1.3 °F -0.4 °F 67% 30.10 in 10.0 mi West 5.8 mph - N/A   Partly Cloudy
9:15 PM 6.8 °F -0.1 °F -0.4 °F 72% 30.10 in 10.0 mi West 3.5 mph - N/A   Clear
9:35 PM 6.8 °F -2.0 °F -0.4 °F 72% 30.11 in 10.0 mi West 4.6 mph - N/A   Clear
9:55 PM 6.8 °F -2.0 °F 1.4 °F 79% 30.12 in 10.0 mi West 4.6 mph - N/A   Clear
10:15 PM 6.8 °F -2.0 °F -0.4 °F 72% 30.12 in 10.0 mi West 4.6 mph - N/A   Clear
10:35 PM 6.8 °F -3.5 °F 1.4 °F 79% 30.13 in 10.0 mi West 5.8 mph - N/A   Clear
10:55 PM 5.0 °F -5.6 °F -2.2 °F 72% 30.13 in 10.0 mi West 5.8 mph - N/A   Clear
11:15 PM 6.8 °F -4.8 °F -0.4 °F 72% 30.14 in 10.0 mi West 6.9 mph - N/A   Clear
11:35 PM 6.8 °F -5.9 °F -0.4 °F 72% 30.14 in 10.0 mi West 8.1 mph - N/A   Clear
11:55 PM 6.8 °F -6.9 °F -0.4 °F 72% 30.15 in 10.0 mi West 9.2 mph - N/A   Clear